| time (UTC) | temp F | wind direction | speed MPH | gust MPH | rain 1hr in | rain 24hr in | rain mn in | humidity % | barometer mb |
| 20260831051024 | 68 | 0 | 0.0 | 0.0 | 0.00 | 0.00 | 0.00 | 88 | 1020.5 |
| 20260831050523 | 68 | 0 | 0.0 | 0.0 | 0.00 | 0.00 | 0.00 | 88 | 1020.5 |
| 20260831050048 | 68 | 0 | 0.0 | 0.0 | 0.00 | 0.00 | 0.00 | 88 | 1020.5 |
| 20260831045530 | 68 | 0 | 0.0 | 0.0 | 0.00 | 0.00 | 0.00 | 88 | 1020.5 |
| 20260831045027 | 68 | 0 | 0.0 | 0.0 | 0.00 | 0.00 | 0.00 | 88 | 1020.5 |
| 20260831044857 | 68 | 164 | 0.0 | 0.0 | 0.00 | 0.00 | 0.00 | 88 | 1022.7 |
| 20260831044552 | 68 | 0 | 0.0 | 0.0 | 0.00 | 0.00 | 0.00 | 88 | 1020.6 |
| 20260831044026 | 68 | 0 | 0.0 | 0.0 | 0.00 | 0.00 | 0.00 | 88 | 1020.7 |
| 20260831043832 | 69 | 164 | 0.0 | 0.0 | 0.00 | 0.00 | 0.00 | 88 | 1022.7 |
| 20260831043524 | 68 | 0 | 0.0 | 0.0 | 0.00 | 0.00 | 0.00 | 88 | 1020.7 |
| 20260831043052 | 68 | 0 | 0.0 | 0.0 | 0.00 | 0.00 | 0.00 | 88 | 1020.7 |
| 20260831042837 | 69 | 164 | 0.0 | 0.0 | 0.00 | 0.00 | 0.00 | 88 | 1022.8 |
| 20260831042526 | 68 | 0 | 0.0 | 0.0 | 0.00 | 0.00 | 0.00 | 88 | 1020.7 |
| 20260831042024 | 69 | 0 | 0.0 | 0.0 | 0.00 | 0.00 | 0.00 | 88 | 1020.8 |
| 20260831041836 | 69 | 164 | 0.0 | 0.0 | 0.00 | 0.00 | 0.00 | 87 | 1022.8 |
| 20260831041544 | 69 | 0 | 0.0 | 0.0 | 0.00 | 0.00 | 0.00 | 87 | 1020.7 |
| 20260831041026 | 69 | 0 | 0.0 | 0.0 | 0.00 | 0.00 | 0.00 | 87 | 1020.8 |
| 20260831040821 | 69 | 164 | 0.0 | 0.0 | 0.00 | 0.00 | 0.00 | 87 | 1022.7 |
| 20260831040522 | 69 | 0 | 0.0 | 0.0 | 0.00 | 0.00 | 0.00 | 87 | 1020.7 |
| 20260831040043 | 69 | 0 | 0.0 | 0.0 | 0.00 | 0.00 | 0.00 | 87 | 1020.7 |
| 20260831035808 | 70 | 164 | 0.0 | 0.0 | 0.00 | 0.00 | 0.00 | 88 | 1022.7 |
| 20260831035525 | 69 | 0 | 0.0 | 0.0 | 0.00 | 0.00 | 0.00 | 88 | 1020.6 |
| 20260831035025 | 69 | 0 | 0.0 | 0.0 | 0.00 | 0.00 | 0.00 | 88 | 1020.7 |
| 20260831034825 | 70 | 164 | 0.0 | 0.0 | 0.00 | 0.00 | 0.00 | 87 | 1022.7 |
| 20260831034553 | 69 | 0 | 0.0 | 0.0 | 0.00 | 0.00 | 0.00 | 87 | 1020.7 |
| 20260831034026 | 69 | 0 | 0.0 | 0.0 | 0.00 | 0.00 | 0.00 | 87 | 1020.6 |
| 20260831033809 | 70 | 164 | 0.0 | 0.0 | 0.00 | 0.00 | 0.00 | 87 | 1022.8 |
| 20260831033525 | 69 | 0 | 0.0 | 0.0 | 0.00 | 0.00 | 0.00 | 87 | 1020.7 |
| 20260831033103 | 69 | 0 | 0.0 | 0.0 | 0.00 | 0.00 | 0.00 | 87 | 1020.9 |
| 20260831032829 | 70 | 164 | 0.0 | 0.0 | 0.00 | 0.00 | 0.00 | 87 | 1022.9 |
| 20260831032524 | 69 | 0 | 0.0 | 0.0 | 0.00 | 0.00 | 0.00 | 87 | 1021.0 |
| 20260831032023 | 70 | 0 | 0.0 | 0.0 | 0.00 | 0.00 | 0.00 | 87 | 1020.9 |
| 20260831031816 | 70 | 164 | 0.0 | 0.0 | 0.00 | 0.00 | 0.00 | 87 | 1023.0 |
| 20260831031540 | 70 | 0 | 0.0 | 0.0 | 0.00 | 0.00 | 0.00 | 87 | 1020.9 |
| 20260831031029 | 70 | 0 | 0.0 | 0.0 | 0.00 | 0.00 | 0.00 | 87 | 1020.9 |
| 20260831030524 | 70 | 0 | 0.0 | 1.0 | 0.00 | 0.00 | 0.00 | 87 | 1021.1 |
| 20260831030053 | 70 | 0 | 0.0 | 1.0 | 0.00 | 0.00 | 0.00 | 87 | 1020.9 |
| 20260831025706 | 71 | 164 | 0.0 | 0.0 | 0.00 | 0.00 | 0.00 | 87 | 1023.0 |
| 20260831025525 | 70 | 0 | 0.0 | 1.0 | 0.00 | 0.00 | 0.00 | 87 | 1021.0 |
| 20260831025025 | 70 | 0 | 0.0 | 1.0 | 0.00 | 0.00 | 0.00 | 87 | 1021.1 |
| 20260831024549 | 70 | 0 | 0.0 | 1.0 | 0.00 | 0.00 | 0.00 | 87 | 1021.1 |
| 20260831024028 | 71 | 164 | 0.0 | 1.0 | 0.00 | 0.00 | 0.00 | 87 | 1021.1 |
| 20260831023527 | 71 | 164 | 0.0 | 0.0 | 0.00 | 0.00 | 0.00 | 87 | 1023.2 |
| 20260831023524 | 71 | 0 | 0.0 | 0.0 | 0.00 | 0.00 | 0.00 | 87 | 1021.2 |
| 20260831023045 | 71 | 0 | 0.0 | 0.0 | 0.00 | 0.00 | 0.00 | 87 | 1021.1 |
| 20260831022525 | 71 | 0 | 0.0 | 0.0 | 0.00 | 0.00 | 0.00 | 87 | 1021.1 |
| 20260831022025 | 71 | 0 | 0.0 | 1.0 | 0.00 | 0.00 | 0.00 | 87 | 1021.1 |
| 20260831021553 | 71 | 0 | 0.0 | 1.0 | 0.00 | 0.00 | 0.00 | 87 | 1021.1 |
| 20260831021429 | 72 | 164 | 0.0 | 0.0 | 0.00 | 0.00 | 0.00 | 87 | 1023.1 |
| 20260831021030 | 72 | 0 | 0.0 | 1.0 | 0.00 | 0.00 | 0.00 | 87 | 1021.0 |
| 20260831020527 | 72 | 0 | 0.0 | 0.0 | 0.00 | 0.00 | 0.00 | 87 | 1020.9 |
| 20260831020430 | 72 | 164 | 0.0 | 0.0 | 0.00 | 0.00 | 0.00 | 87 | 1022.9 |
| 20260831020106 | 72 | 0 | 0.0 | 1.0 | 0.00 | 0.00 | 0.00 | 87 | 1020.8 |
| 20260831015524 | 72 | 0 | 0.0 | 1.0 | 0.00 | 0.00 | 0.00 | 87 | 1020.8 |
| 20260831015417 | 73 | 164 | 0.0 | 0.0 | 0.00 | 0.00 | 0.00 | 87 | 1022.9 |
| 20260831015024 | 72 | 0 | 0.0 | 1.0 | 0.00 | 0.00 | 0.00 | 86 | 1020.9 |
| 20260831014543 | 73 | 0 | 0.0 | 1.0 | 0.00 | 0.00 | 0.00 | 86 | 1020.9 |
| 20260831014025 | 73 | 0 | 0.0 | 1.0 | 0.00 | 0.00 | 0.00 | 86 | 1020.8 |
| 20260831013527 | 73 | 0 | 0.0 | 1.0 | 0.00 | 0.00 | 0.00 | 86 | 1020.9 |
| 20260831013244 | 74 | 164 | 0.0 | 0.0 | 0.00 | 0.00 | 0.00 | 86 | 1022.9 |
| 20260831013105 | 73 | 0 | 0.0 | 1.0 | 0.00 | 0.00 | 0.00 | 86 | 1020.8 |
| 20260831012525 | 74 | 0 | 0.0 | 1.0 | 0.00 | 0.00 | 0.00 | 86 | 1020.8 |
| 20260831012026 | 74 | 0 | 0.0 | 1.0 | 0.00 | 0.00 | 0.00 | 85 | 1020.7 |
| 20260831011553 | 74 | 0 | 0.0 | 3.0 | 0.00 | 0.00 | 0.00 | 85 | 1020.6 |
| 20260831011115 | 74 | 164 | 0.0 | 2.0 | 0.00 | 0.00 | 0.00 | 84 | 1022.6 |
| 20260831011024 | 74 | 0 | 0.0 | 3.0 | 0.00 | 0.00 | 0.00 | 84 | 1020.6 |
| 20260831010525 | 74 | 150 | 0.0 | 3.0 | 0.00 | 0.00 | 0.00 | 84 | 1020.5 |
| 20260831010057 | 75 | 149 | 0.0 | 1.0 | 0.00 | 0.00 | 0.00 | 84 | 1022.5 |
| 20260831010045 | 74 | 164 | 1.0 | 3.0 | 0.00 | 0.00 | 0.00 | 84 | 1020.5 |
| 20260831005526 | 75 | 0 | 0.0 | 1.0 | 0.00 | 0.00 | 0.00 | 84 | 1020.3 |
| 20260831005045 | 75 | 161 | 0.0 | 0.0 | 0.00 | 0.00 | 0.00 | 83 | 1022.4 |
| 20260831005027 | 75 | 0 | 0.0 | 2.0 | 0.00 | 0.00 | 0.00 | 83 | 1020.3 |
| 20260831004542 | 75 | 0 | 0.0 | 2.0 | 0.00 | 0.00 | 0.00 | 83 | 1020.3 |
| 20260831004025 | 75 | 149 | 1.0 | 2.0 | 0.00 | 0.00 | 0.00 | 82 | 1020.2 |
| 20260831003526 | 76 | 160 | 0.0 | 2.0 | 0.00 | 0.00 | 0.00 | 81 | 1020.3 |
| 20260831003052 | 76 | 0 | 0.0 | 3.0 | 0.00 | 0.00 | 0.00 | 81 | 1020.2 |
| 20260831002525 | 77 | 168 | 0.0 | 3.0 | 0.00 | 0.00 | 0.00 | 79 | 1020.1 |
| 20260831002025 | 77 | 0 | 0.0 | 3.0 | 0.00 | 0.00 | 0.00 | 79 | 1020.1 |
| 20260831001817 | 77 | 145 | 0.0 | 2.0 | 0.00 | 0.00 | 0.00 | 79 | 1022.2 |
| 20260831001547 | 77 | 157 | 1.0 | 3.0 | 0.00 | 0.00 | 0.00 | 79 | 1020.1 |
| 20260831001028 | 77 | 116 | 0.0 | 3.0 | 0.00 | 0.00 | 0.00 | 79 | 1020.1 |
| 20260831000808 | 78 | 149 | 0.0 | 1.0 | 0.00 | 0.00 | 0.00 | 79 | 1022.2 |
| 20260831000526 | 77 | 0 | 0.0 | 3.0 | 0.00 | 0.00 | 0.00 | 78 | 1020.2 |
| 20260831000046 | 78 | 149 | 1.0 | 3.0 | 0.00 | 0.00 | 0.00 | 78 | 1020.2 |
| 20260830235756 | 79 | 169 | 0.0 | 1.0 | 0.00 | 0.00 | 0.00 | 77 | 1022.2 |
| 20260830235525 | 78 | 169 | 1.0 | 2.0 | 0.00 | 0.00 | 0.00 | 77 | 1020.2 |
| 20260830235025 | 79 | 190 | 0.0 | 2.0 | 0.00 | 0.00 | 0.00 | 76 | 1020.3 |
| 20260830234554 | 80 | 190 | 0.0 | 2.0 | 0.00 | 0.00 | 0.00 | 74 | 1020.3 |
| 20260830234025 | 81 | 0 | 0.0 | 4.0 | 0.00 | 0.00 | 0.00 | 72 | 1020.2 |
| 20260830233527 | 81 | 155 | 1.0 | 4.0 | 0.00 | 0.00 | 0.00 | 70 | 1020.3 |
| 20260830233048 | 82 | 153 | 1.0 | 3.0 | 0.00 | 0.00 | 0.00 | 68 | 1020.3 |
| 20260830232527 | 82 | 171 | 1.0 | 4.0 | 0.00 | 0.00 | 0.00 | 68 | 1020.3 |
| 20260830232509 | 83 | 171 | 1.0 | 3.0 | 0.00 | 0.00 | 0.00 | 68 | 1022.3 |
| 20260830232025 | 83 | 169 | 2.0 | 4.0 | 0.00 | 0.00 | 0.00 | 67 | 1020.3 |
| 20260830231546 | 83 | 154 | 1.0 | 3.0 | 0.00 | 0.00 | 0.00 | 66 | 1020.3 |
| 20260830231448 | 84 | 176 | 1.0 | 3.0 | 0.00 | 0.00 | 0.00 | 66 | 1022.3 |
| 20260830231026 | 84 | 96 | 1.0 | 5.0 | 0.00 | 0.00 | 0.00 | 65 | 1020.2 |
| 20260830230528 | 84 | 180 | 2.0 | 5.0 | 0.00 | 0.00 | 0.00 | 64 | 1020.2 |
| 20260830230415 | 85 | 156 | 1.0 | 3.0 | 0.00 | 0.00 | 0.00 | 64 | 1022.2 |
| 20260830230043 | 84 | 170 | 1.0 | 6.0 | 0.00 | 0.00 | 0.00 | 63 | 1020.1 |
| 20260830225523 | 85 | 181 | 3.0 | 6.0 | 0.00 | 0.00 | 0.00 | 63 | 1020.2 |
| 20260830225349 | 85 | 155 | 1.0 | 3.0 | 0.00 | 0.00 | 0.00 | 63 | 1022.2 |
| 20260830225025 | 85 | 0 | 1.0 | 6.0 | 0.00 | 0.00 | 0.00 | 62 | 1020.2 |
| 20260830224553 | 85 | 167 | 1.0 | 6.0 | 0.00 | 0.00 | 0.00 | 61 | 1020.2 |
| 20260830224025 | 85 | 133 | 2.0 | 5.0 | 0.00 | 0.00 | 0.00 | 61 | 1020.1 |
| 20260830223525 | 85 | 226 | 2.0 | 6.0 | 0.00 | 0.00 | 0.00 | 61 | 1020.0 |
| 20260830223048 | 86 | 239 | 2.0 | 6.0 | 0.00 | 0.00 | 0.00 | 60 | 1020.0 |
| 20260830222522 | 86 | 197 | 2.0 | 4.0 | 0.00 | 0.00 | 0.00 | 61 | 1020.0 |
| 20260830222050 | 87 | 220 | 1.0 | 5.0 | 0.00 | 0.00 | 0.00 | 60 | 1022.1 |
| 20260830222026 | 86 | 200 | 1.0 | 6.0 | 0.00 | 0.00 | 0.00 | 60 | 1020.0 |
| 20260830221543 | 86 | 242 | 2.0 | 6.0 | 0.00 | 0.00 | 0.00 | 60 | 1020.0 |
| 20260830221025 | 87 | 72 | 2.0 | 6.0 | 0.00 | 0.00 | 0.00 | 61 | 1020.0 |
| 20260830220525 | 87 | 197 | 2.0 | 6.0 | 0.00 | 0.00 | 0.00 | 59 | 1020.0 |
| 20260830215948 | 87 | 173 | 1.0 | 3.0 | 0.00 | 0.00 | 0.00 | 59 | 1022.1 |
| 20260830215525 | 87 | 162 | 2.0 | 5.0 | 0.00 | 0.00 | 0.00 | 59 | 1020.0 |
| 20260830215025 | 87 | 279 | 1.0 | 6.0 | 0.00 | 0.00 | 0.00 | 59 | 1019.9 |
| 20260830214927 | 88 | 272 | 1.0 | 7.0 | 0.00 | 0.00 | 0.00 | 59 | 1021.9 |
| 20260830214548 | 87 | 245 | 2.0 | 8.0 | 0.00 | 0.00 | 0.00 | 60 | 1019.9 |
| 20260830214024 | 87 | 198 | 2.0 | 10.0 | 0.00 | 0.00 | 0.00 | 60 | 1019.9 |
| 20260830213922 | 88 | 221 | 3.0 | 7.0 | 0.00 | 0.00 | 0.00 | 59 | 1022.0 |
| 20260830213523 | 87 | 141 | 4.0 | 10.0 | 0.00 | 0.00 | 0.00 | 59 | 1019.9 |
| 20260830213045 | 87 | 194 | 3.0 | 6.0 | 0.00 | 0.00 | 0.00 | 61 | 1020.0 |
| 20260830212902 | 88 | 189 | 2.0 | 5.0 | 0.00 | 0.00 | 0.00 | 60 | 1022.0 |
| 20260830212522 | 87 | 140 | 2.0 | 6.0 | 0.00 | 0.00 | 0.00 | 59 | 1020.0 |
| 20260830212024 | 87 | 185 | 3.0 | 9.0 | 0.00 | 0.00 | 0.00 | 59 | 1020.0 |
| 20260830211843 | 88 | 193 | 3.0 | 5.0 | 0.00 | 0.00 | 0.00 | 58 | 1022.1 |
| 20260830211606 | 87 | 72 | 4.0 | 9.0 | 0.00 | 0.00 | 0.00 | 59 | 1020.0 |
| 20260830211031 | 87 | 147 | 2.0 | 7.0 | 0.00 | 0.00 | 0.00 | 59 | 1020.0 |
| 20260830210907 | 88 | 147 | 3.0 | 6.0 | 0.00 | 0.00 | 0.00 | 59 | 1022.1 |
| 20260830210525 | 87 | 120 | 2.0 | 8.0 | 0.00 | 0.00 | 0.00 | 59 | 1020.0 |
| 20260830210053 | 88 | 148 | 4.0 | 8.0 | 0.00 | 0.00 | 0.00 | 59 | 1020.1 |
| 20260830205525 | 88 | 0 | 2.0 | 7.0 | 0.00 | 0.00 | 0.00 | 59 | 1020.2 |
| 20260830205024 | 88 | 126 | 2.0 | 8.0 | 0.00 | 0.00 | 0.00 | 58 | 1020.2 |
| 20260830204721 | 89 | 259 | 2.0 | 7.0 | 0.00 | 0.00 | 0.00 | 59 | 1022.3 |
| 20260830204545 | 88 | 135 | 2.0 | 8.0 | 0.00 | 0.00 | 0.00 | 58 | 1020.2 |
| 20260830204024 | 88 | 146 | 2.0 | 8.0 | 0.00 | 0.00 | 0.00 | 60 | 1020.2 |
| 20260830203745 | 88 | 234 | 3.0 | 8.0 | 0.00 | 0.00 | 0.00 | 59 | 1022.2 |
| 20260830203524 | 88 | 145 | 4.0 | 9.0 | 0.00 | 0.00 | 0.00 | 59 | 1020.2 |
| 20260830203043 | 88 | 207 | 5.0 | 9.0 | 0.00 | 0.00 | 0.00 | 60 | 1020.2 |
| 20260830202757 | 88 | 137 | 3.0 | 8.0 | 0.00 | 0.00 | 0.00 | 58 | 1022.3 |
| 20260830202525 | 87 | 201 | 3.0 | 8.0 | 0.00 | 0.00 | 0.00 | 61 | 1020.1 |
| 20260830202025 | 87 | 198 | 3.0 | 7.0 | 0.00 | 0.00 | 0.00 | 61 | 1020.3 |
| 20260830201738 | 87 | 192 | 1.0 | 5.0 | 0.00 | 0.00 | 0.00 | 61 | 1022.4 |
| 20260830201552 | 85 | 181 | 1.0 | 5.0 | 0.00 | 0.00 | 0.00 | 61 | 1020.3 |
| 20260830201027 | 86 | 0 | 1.0 | 8.0 | 0.00 | 0.00 | 0.00 | 60 | 1020.4 |
| 20260830200716 | 87 | 241 | 3.0 | 6.0 | 0.00 | 0.00 | 0.00 | 59 | 1022.5 |
| 20260830200524 | 87 | 248 | 3.0 | 8.0 | 0.00 | 0.00 | 0.00 | 59 | 1020.4 |
| 20260830200050 | 87 | 182 | 3.0 | 8.0 | 0.00 | 0.00 | 0.00 | 59 | 1020.4 |
| 20260830195733 | 88 | 168 | 2.0 | 6.0 | 0.00 | 0.00 | 0.00 | 60 | 1022.4 |
| 20260830195524 | 87 | 126 | 2.0 | 7.0 | 0.00 | 0.00 | 0.00 | 60 | 1020.5 |
| 20260830195023 | 87 | 96 | 3.0 | 6.0 | 0.00 | 0.00 | 0.00 | 59 | 1020.6 |
| 20260830194758 | 87 | 156 | 1.0 | 7.0 | 0.00 | 0.00 | 0.00 | 60 | 1022.7 |
| 20260830194547 | 86 | 316 | 1.0 | 4.0 | 0.00 | 0.00 | 0.00 | 61 | 1020.6 |
| 20260830194027 | 85 | 0 | 0.0 | 8.0 | 0.00 | 0.00 | 0.00 | 61 | 1020.7 |
| 20260830193821 | 85 | 138 | 2.0 | 7.0 | 0.00 | 0.00 | 0.00 | 61 | 1022.7 |
| 20260830193526 | 85 | 117 | 4.0 | 8.0 | 0.00 | 0.00 | 0.00 | 61 | 1020.7 |
| 20260830193054 | 86 | 0 | 2.0 | 6.0 | 0.00 | 0.00 | 0.00 | 60 | 1020.8 |
| 20260830192526 | 87 | 114 | 1.0 | 4.0 | 0.00 | 0.00 | 0.00 | 60 | 1020.8 |
| 20260830192027 | 87 | 250 | 2.0 | 6.0 | 0.00 | 0.00 | 0.00 | 60 | 1020.8 |
| 20260830191707 | 88 | 166 | 2.0 | 5.0 | 0.00 | 0.00 | 0.00 | 58 | 1022.9 |
| 20260830191557 | 87 | 143 | 3.0 | 6.0 | 0.00 | 0.00 | 0.00 | 58 | 1020.8 |
| 20260830191025 | 87 | 136 | 2.0 | 7.0 | 0.00 | 0.00 | 0.00 | 60 | 1021.0 |
| 20260830190654 | 87 | 216 | 3.0 | 6.0 | 0.00 | 0.00 | 0.00 | 62 | 1023.0 |
| 20260830190524 | 87 | 163 | 3.0 | 7.0 | 0.00 | 0.00 | 0.00 | 62 | 1021.0 |
| 20260830190100 | 87 | 251 | 3.0 | 7.0 | 0.00 | 0.00 | 0.00 | 61 | 1021.0 |
| 20260830185649 | 87 | 185 | 3.0 | 6.0 | 0.00 | 0.00 | 0.00 | 60 | 1023.2 |
| 20260830185525 | 86 | 43 | 3.0 | 7.0 | 0.00 | 0.00 | 0.00 | 60 | 1021.2 |
| 20260830185025 | 86 | 160 | 2.0 | 7.0 | 0.00 | 0.00 | 0.00 | 60 | 1021.3 |
| 20260830184644 | 87 | 139 | 3.0 | 6.0 | 0.00 | 0.00 | 0.00 | 61 | 1023.4 |
| 20260830184559 | 87 | 209 | 4.0 | 7.0 | 0.00 | 0.00 | 0.00 | 59 | 1021.4 |
| 20260830184025 | 87 | 141 | 3.0 | 6.0 | 0.00 | 0.00 | 0.00 | 60 | 1021.5 |
| 20260830183527 | 86 | 116 | 2.0 | 10.0 | 0.00 | 0.00 | 0.00 | 59 | 1021.7 |
| 20260830183052 | 86 | 151 | 3.0 | 10.0 | 0.00 | 0.00 | 0.00 | 59 | 1021.8 |
| 20260830182527 | 86 | 113 | 3.0 | 10.0 | 0.00 | 0.00 | 0.00 | 63 | 1021.9 |
| 20260830182450 | 86 | 106 | 1.0 | 7.0 | 0.00 | 0.00 | 0.00 | 63 | 1024.0 |
| 20260830182026 | 85 | 72 | 3.0 | 7.0 | 0.00 | 0.00 | 0.00 | 62 | 1022.0 |
| 20260830181546 | 85 | 359 | 1.0 | 7.0 | 0.00 | 0.00 | 0.00 | 62 | 1022.0 |
| 20260830181421 | 86 | 355 | 2.0 | 6.0 | 0.00 | 0.00 | 0.00 | 62 | 1024.1 |
| 20260830181032 | 85 | 181 | 3.0 | 7.0 | 0.00 | 0.00 | 0.00 | 64 | 1022.1 |
| 20260830180525 | 85 | 92 | 2.0 | 7.0 | 0.00 | 0.00 | 0.00 | 62 | 1022.2 |
| 20260830180413 | 86 | 101 | 2.0 | 6.0 | 0.00 | 0.00 | 0.00 | 63 | 1024.3 |
| 20260830180110 | 85 | 221 | 2.0 | 8.0 | 0.00 | 0.00 | 0.00 | 64 | 1022.2 |
| 20260830175524 | 84 | 11 | 2.0 | 8.0 | 0.00 | 0.00 | 0.00 | 63 | 1022.3 |
| 20260830175435 | 85 | 40 | 2.0 | 8.0 | 0.00 | 0.00 | 0.00 | 63 | 1024.4 |
| 20260830175026 | 84 | 228 | 2.0 | 9.0 | 0.00 | 0.00 | 0.00 | 64 | 1022.3 |
| 20260830174606 | 85 | 229 | 3.0 | 9.0 | 0.00 | 0.00 | 0.00 | 64 | 1022.4 |
| 20260830174411 | 85 | 146 | 3.0 | 8.0 | 0.00 | 0.00 | 0.00 | 63 | 1024.6 |
| 20260830174025 | 85 | 111 | 4.0 | 8.0 | 0.00 | 0.00 | 0.00 | 62 | 1022.6 |
| 20260830173528 | 84 | 234 | 3.0 | 7.0 | 0.00 | 0.00 | 0.00 | 65 | 1022.6 |
| 20260830173400 | 85 | 201 | 2.0 | 6.0 | 0.00 | 0.00 | 0.00 | 65 | 1024.7 |
| 20260830173114 | 84 | 110 | 3.0 | 8.0 | 0.00 | 0.00 | 0.00 | 63 | 1022.6 |
| 20260830172524 | 83 | 135 | 3.0 | 8.0 | 0.00 | 0.00 | 0.00 | 64 | 1022.7 |
| 20260830172023 | 84 | 251 | 2.0 | 5.0 | 0.00 | 0.00 | 0.00 | 65 | 1022.9 |
| 20260830171553 | 84 | 243 | 2.0 | 5.0 | 0.00 | 0.00 | 0.00 | 69 | 1022.9 |
| 20260830171023 | 83 | 152 | 1.0 | 4.0 | 0.00 | 0.00 | 0.00 | 68 | 1022.9 |
| 20260830170530 | 83 | 351 | 1.0 | 4.0 | 0.00 | 0.00 | 0.00 | 67 | 1023.0 |
| 20260830170054 | 82 | 285 | 1.0 | 6.0 | 0.00 | 0.00 | 0.00 | 69 | 1023.0 |
| 20260830165523 | 84 | 218 | 2.0 | 7.0 | 0.00 | 0.00 | 0.00 | 67 | 1023.2 |
| 20260830165024 | 84 | 157 | 3.0 | 7.0 | 0.00 | 0.00 | 0.00 | 65 | 1023.4 |
| 20260830164553 | 84 | 151 | 1.0 | 7.0 | 0.00 | 0.00 | 0.00 | 66 | 1023.4 |
| 20260830164026 | 83 | 162 | 3.0 | 7.0 | 0.00 | 0.00 | 0.00 | 68 | 1023.5 |
| 20260830163914 | 83 | 122 | 2.0 | 6.0 | 0.00 | 0.00 | 0.00 | 67 | 1025.4 |
| 20260830163526 | 82 | 102 | 2.0 | 6.0 | 0.00 | 0.00 | 0.00 | 70 | 1023.4 |
| 20260830163050 | 82 | 121 | 1.0 | 5.0 | 0.00 | 0.00 | 0.00 | 68 | 1023.5 |
| 20260830162857 | 83 | 72 | 2.0 | 4.0 | 0.00 | 0.00 | 0.00 | 69 | 1025.5 |
| 20260830162523 | 82 | 145 | 2.0 | 6.0 | 0.00 | 0.00 | 0.00 | 69 | 1023.6 |
| 20260830162026 | 83 | 180 | 3.0 | 6.0 | 0.00 | 0.00 | 0.00 | 70 | 1023.8 |
| 20260830161555 | 81 | 131 | 2.0 | 5.0 | 0.00 | 0.00 | 0.00 | 71 | 1023.7 |
| 20260830161026 | 81 | 85 | 2.0 | 5.0 | 0.00 | 0.00 | 0.00 | 70 | 1023.8 |
| 20260830160526 | 81 | 149 | 2.0 | 5.0 | 0.00 | 0.00 | 0.00 | 71 | 1023.8 |
| 20260830160043 | 81 | 144 | 3.0 | 5.0 | 0.00 | 0.00 | 0.00 | 72 | 1023.8 |
| 20260830155700 | 81 | 151 | 2.0 | 4.0 | 0.00 | 0.00 | 0.00 | 74 | 1025.8 |
| 20260830155526 | 80 | 122 | 2.0 | 5.0 | 0.00 | 0.00 | 0.00 | 73 | 1023.8 |
| 20260830155026 | 78 | 116 | 2.0 | 4.0 | 0.00 | 0.00 | 0.00 | 76 | 1023.9 |
| 20260830154553 | 78 | 131 | 2.0 | 4.0 | 0.00 | 0.00 | 0.00 | 76 | 1023.8 |
| 20260830154025 | 79 | 123 | 1.0 | 4.0 | 0.00 | 0.00 | 0.00 | 74 | 1023.9 |
| 20260830153601 | 80 | 203 | 1.0 | 4.0 | 0.00 | 0.00 | 0.00 | 75 | 1025.8 |
| 20260830153525 | 79 | 208 | 2.0 | 5.0 | 0.00 | 0.00 | 0.00 | 75 | 1023.9 |
| 20260830153049 | 78 | 195 | 1.0 | 7.0 | 0.00 | 0.00 | 0.00 | 77 | 1023.9 |
| 20260830152536 | 79 | 141 | 2.0 | 6.0 | 0.00 | 0.00 | 0.00 | 76 | 1026.0 |
| 20260830152525 | 79 | 146 | 2.0 | 7.0 | 0.00 | 0.00 | 0.00 | 76 | 1023.9 |
| 20260830152028 | 79 | 168 | 3.0 | 7.0 | 0.00 | 0.00 | 0.00 | 76 | 1024.0 |
| 20260830151559 | 79 | 176 | 1.0 | 7.0 | 0.00 | 0.00 | 0.00 | 76 | 1024.0 |
| 20260830151521 | 79 | 171 | 1.0 | 7.0 | 0.00 | 0.00 | 0.00 | 76 | 1026.1 |
| 20260830151025 | 79 | 3 | 1.0 | 8.0 | 0.00 | 0.00 | 0.00 | 78 | 1024.0 |
| 20260830150525 | 78 | 110 | 1.0 | 8.0 | 0.00 | 0.00 | 0.00 | 77 | 1024.0 |
| 20260830150518 | 78 | 103 | 2.0 | 7.0 | 0.00 | 0.00 | 0.00 | 77 | 1026.1 |
| 20260830150053 | 77 | 85 | 3.0 | 7.0 | 0.00 | 0.00 | 0.00 | 79 | 1024.0 |
| 20260830145525 | 77 | 43 | 1.0 | 5.0 | 0.00 | 0.00 | 0.00 | 80 | 1023.9 |
| 20260830145449 | 78 | 172 | 1.0 | 4.0 | 0.00 | 0.00 | 0.00 | 80 | 1025.9 |
| 20260830145025 | 76 | 43 | 1.0 | 5.0 | 0.00 | 0.00 | 0.00 | 82 | 1023.9 |
| 20260830144555 | 76 | 104 | 0.0 | 3.0 | 0.00 | 0.00 | 0.00 | 83 | 1023.9 |
| 20260830144025 | 76 | 0 | 1.0 | 3.0 | 0.00 | 0.00 | 0.00 | 82 | 1023.9 |
| 20260830143521 | 75 | 256 | 1.0 | 5.0 | 0.00 | 0.00 | 0.00 | 86 | 1024.0 |
| 20260830143044 | 74 | 95 | 2.0 | 5.0 | 0.00 | 0.00 | 0.00 | 87 | 1023.9 |
| 20260830142525 | 74 | 85 | 2.0 | 4.0 | 0.00 | 0.00 | 0.00 | 87 | 1024.0 |
| 20260830142235 | 74 | 85 | 1.0 | 3.0 | 0.00 | 0.00 | 0.00 | 88 | 1026.1 |
| 20260830142025 | 74 | 85 | 2.0 | 4.0 | 0.00 | 0.00 | 0.00 | 88 | 1024.1 |
| 20260830141541 | 73 | 0 | 1.0 | 4.0 | 0.00 | 0.00 | 0.00 | 88 | 1024.0 |
| 20260830141218 | 74 | 6 | 0.0 | 3.0 | 0.00 | 0.00 | 0.00 | 88 | 1026.0 |
| 20260830141026 | 73 | 284 | 0.0 | 4.0 | 0.00 | 0.00 | 0.00 | 88 | 1024.0 |
| 20260830140524 | 73 | 29 | 2.0 | 4.0 | 0.00 | 0.00 | 0.00 | 88 | 1024.0 |
| 20260830140154 | 73 | 68 | 0.0 | 2.0 | 0.00 | 0.00 | 0.00 | 88 | 1026.1 |
| 20260830140101 | 72 | 208 | 0.0 | 2.0 | 0.00 | 0.00 | 0.00 | 88 | 1024.1 |
| 20260830135524 | 72 | 108 | 0.0 | 2.0 | 0.00 | 0.00 | 0.00 | 88 | 1024.3 |
| 20260830135135 | 72 | 37 | 0.0 | 1.0 | 0.00 | 0.00 | 0.00 | 88 | 1026.3 |
| 20260830135023 | 72 | 37 | 1.0 | 2.0 | 0.00 | 0.00 | 0.00 | 88 | 1024.2 |
| 20260830134549 | 71 | 0 | 0.0 | 3.0 | 0.00 | 0.00 | 0.00 | 88 | 1024.2 |
| 20260830134122 | 72 | 71 | 0.0 | 0.0 | 0.00 | 0.00 | 0.00 | 88 | 1026.2 |
| 20260830134025 | 71 | 71 | 0.0 | 3.0 | 0.00 | 0.00 | 0.00 | 88 | 1024.2 |
| 20260830133525 | 71 | 71 | 0.0 | 3.0 | 0.00 | 0.00 | 0.00 | 88 | 1024.3 |
| 20260830133120 | 71 | 123 | 0.0 | 0.0 | 0.00 | 0.00 | 0.00 | 88 | 1026.3 |
| 20260830133047 | 71 | 0 | 0.0 | 1.0 | 0.00 | 0.00 | 0.00 | 88 | 1024.2 |
| 20260830132528 | 71 | 0 | 0.0 | 1.0 | 0.00 | 0.00 | 0.00 | 88 | 1024.3 |
| 20260830132119 | 71 | 123 | 0.0 | 0.0 | 0.00 | 0.00 | 0.00 | 88 | 1026.3 |
| 20260830132024 | 71 | 0 | 0.0 | 1.0 | 0.00 | 0.00 | 0.00 | 89 | 1024.3 |
| 20260830131557 | 70 | 0 | 0.0 | 1.0 | 0.00 | 0.00 | 0.00 | 89 | 1024.3 |
| 20260830131103 | 71 | 123 | 0.0 | 2.0 | 0.00 | 0.00 | 0.00 | 88 | 1026.2 |
| 20260830131025 | 70 | 123 | 0.0 | 1.0 | 0.00 | 0.00 | 0.00 | 88 | 1024.2 |
| 20260830130525 | 70 | 0 | 0.0 | 3.0 | 0.00 | 0.00 | 0.00 | 89 | 1024.2 |
| 20260830130050 | 70 | 123 | 0.0 | 0.0 | 0.00 | 0.00 | 0.00 | 89 | 1026.2 |
| 20260830130043 | 70 | 0 | 0.0 | 3.0 | 0.00 | 0.00 | 0.00 | 89 | 1024.2 |
| 20260830125523 | 70 | 124 | 1.0 | 3.0 | 0.00 | 0.00 | 0.00 | 88 | 1024.2 |
| 20260830125028 | 69 | 0 | 0.0 | 1.0 | 0.00 | 0.00 | 0.00 | 89 | 1024.2 |
| 20260830124553 | 69 | 0 | 0.0 | 1.0 | 0.00 | 0.00 | 0.00 | 88 | 1024.2 |
| 20260830124027 | 69 | 72 | 0.0 | 1.0 | 0.00 | 0.00 | 0.00 | 88 | 1024.2 |
| 20260830123906 | 69 | 72 | 0.0 | 0.0 | 0.00 | 0.00 | 0.00 | 89 | 1026.2 |
| 20260830123526 | 69 | 0 | 0.0 | 1.0 | 0.00 | 0.00 | 0.00 | 89 | 1024.2 |
| 20260830123052 | 69 | 0 | 0.0 | 1.0 | 0.00 | 0.00 | 0.00 | 89 | 1024.2 |
| 20260830122855 | 69 | 72 | 0.0 | 0.0 | 0.00 | 0.00 | 0.00 | 89 | 1026.2 |
| 20260830122523 | 68 | 0 | 0.0 | 1.0 | 0.00 | 0.00 | 0.00 | 89 | 1024.1 |
| 20260830122023 | 68 | 0 | 0.0 | 1.0 | 0.00 | 0.00 | 0.00 | 88 | 1024.1 |
| 20260830121832 | 69 | 185 | 0.0 | 0.0 | 0.00 | 0.00 | 0.00 | 88 | 1026.2 |
| 20260830121545 | 68 | 0 | 0.0 | 1.0 | 0.00 | 0.00 | 0.00 | 88 | 1024.1 |
| 20260830121025 | 68 | 0 | 0.0 | 1.0 | 0.00 | 0.00 | 0.00 | 89 | 1024.1 |
| 20260830120821 | 68 | 185 | 0.0 | 0.0 | 0.00 | 0.00 | 0.00 | 89 | 1026.1 |
| 20260830120525 | 68 | 0 | 0.0 | 1.0 | 0.00 | 0.00 | 0.00 | 89 | 1024.1 |
| 20260830120043 | 68 | 0 | 0.0 | 1.0 | 0.00 | 0.00 | 0.00 | 89 | 1024.0 |
| 20260830115846 | 68 | 185 | 0.0 | 0.0 | 0.00 | 0.00 | 0.00 | 89 | 1026.0 |
| 20260830115525 | 68 | 0 | 0.0 | 2.0 | 0.00 | 0.00 | 0.00 | 88 | 1023.9 |
| 20260830115023 | 67 | 185 | 0.0 | 2.0 | 0.00 | 0.00 | 0.00 | 88 | 1023.8 |
| 20260830114822 | 68 | 185 | 0.0 | 1.0 | 0.00 | 0.00 | 0.00 | 88 | 1025.8 |
| 20260830114558 | 67 | 185 | 0.0 | 2.0 | 0.00 | 0.00 | 0.00 | 88 | 1023.8 |
| 20260830114024 | 67 | 0 | 0.0 | 0.0 | 0.00 | 0.00 | 0.00 | 89 | 1023.7 |
| 20260830113524 | 67 | 0 | 0.0 | 0.0 | 0.00 | 0.00 | 0.00 | 89 | 1023.7 |
| 20260830113045 | 67 | 0 | 0.0 | 1.0 | 0.00 | 0.00 | 0.00 | 88 | 1023.6 |
| 20260830112641 | 67 | 185 | 0.0 | 0.0 | 0.00 | 0.00 | 0.00 | 88 | 1025.5 |
| 20260830112524 | 67 | 0 | 0.0 | 1.0 | 0.00 | 0.00 | 0.00 | 88 | 1023.4 |
| 20260830112024 | 67 | 0 | 0.0 | 0.0 | 0.00 | 0.00 | 0.00 | 89 | 1023.4 |
| 20260830111701 | 67 | 185 | 0.0 | 0.0 | 0.00 | 0.00 | 0.00 | 88 | 1025.4 |
| 20260830111542 | 67 | 0 | 0.0 | 1.0 | 0.00 | 0.00 | 0.00 | 89 | 1023.3 |
| 20260830111024 | 67 | 0 | 0.0 | 1.0 | 0.00 | 0.00 | 0.00 | 89 | 1023.3 |
| 20260830110723 | 68 | 185 | 0.0 | 0.0 | 0.00 | 0.00 | 0.00 | 89 | 1025.3 |
| 20260830110524 | 67 | 0 | 0.0 | 2.0 | 0.00 | 0.00 | 0.00 | 88 | 1023.2 |
| 20260830110054 | 67 | 0 | 0.0 | 2.0 | 0.00 | 0.00 | 0.00 | 88 | 1023.3 |
| 20260830105737 | 68 | 185 | 0.0 | 1.0 | 0.00 | 0.00 | 0.00 | 88 | 1025.3 |
| 20260830105532 | 67 | 185 | 0.0 | 2.0 | 0.00 | 0.00 | 0.00 | 88 | 1023.2 |
| 20260830105024 | 67 | 0 | 0.0 | 1.0 | 0.00 | 0.00 | 0.00 | 88 | 1023.2 |
| 20260830104746 | 68 | 185 | 0.0 | 0.0 | 0.00 | 0.00 | 0.00 | 88 | 1025.3 |
| 20260830104550 | 67 | 185 | 0.0 | 1.0 | 0.00 | 0.00 | 0.00 | 88 | 1023.1 |
| 20260830104026 | 67 | 0 | 0.0 | 0.0 | 0.00 | 0.00 | 0.00 | 88 | 1023.1 |
| 20260830103718 | 67 | 185 | 0.0 | 0.0 | 0.00 | 0.00 | 0.00 | 88 | 1025.1 |
| 20260830103524 | 67 | 0 | 0.0 | 1.0 | 0.00 | 0.00 | 0.00 | 88 | 1023.1 |
| 20260830103045 | 67 | 0 | 0.0 | 1.0 | 0.00 | 0.00 | 0.00 | 88 | 1023.0 |
| 20260830102527 | 67 | 0 | 0.0 | 0.0 | 0.00 | 0.00 | 0.00 | 88 | 1022.9 |
| 20260830102024 | 67 | 0 | 0.0 | 0.0 | 0.00 | 0.00 | 0.00 | 88 | 1022.9 |
| 20260830101542 | 67 | 0 | 0.0 | 0.0 | 0.00 | 0.00 | 0.00 | 88 | 1022.8 |
| 20260830101025 | 67 | 0 | 0.0 | 1.0 | 0.00 | 0.00 | 0.00 | 88 | 1022.8 |
| 20260830100529 | 67 | 0 | 0.0 | 1.0 | 0.00 | 0.00 | 0.00 | 88 | 1022.8 |
| 20260830100451 | 68 | 185 | 0.0 | 0.0 | 0.00 | 0.00 | 0.00 | 88 | 1024.8 |
| 20260830100053 | 67 | 0 | 0.0 | 1.0 | 0.00 | 0.00 | 0.00 | 88 | 1022.8 |
| 20260830095524 | 67 | 0 | 0.0 | 1.0 | 0.00 | 0.00 | 0.00 | 88 | 1022.6 |
| 20260830095430 | 68 | 185 | 0.0 | 0.0 | 0.00 | 0.00 | 0.00 | 88 | 1024.6 |
| 20260830095025 | 67 | 0 | 0.0 | 1.0 | 0.00 | 0.00 | 0.00 | 88 | 1022.6 |
| 20260830094545 | 67 | 0 | 0.0 | 1.0 | 0.00 | 0.00 | 0.00 | 88 | 1022.6 |
| 20260830094024 | 67 | 0 | 0.0 | 0.0 | 0.00 | 0.00 | 0.00 | 88 | 1022.6 |
| 20260830093525 | 67 | 0 | 0.0 | 0.0 | 0.00 | 0.00 | 0.00 | 88 | 1022.4 |
| 20260830093258 | 68 | 185 | 0.0 | 0.0 | 0.00 | 0.00 | 0.00 | 88 | 1024.6 |
| 20260830093054 | 67 | 0 | 0.0 | 0.0 | 0.00 | 0.00 | 0.00 | 88 | 1022.4 |
| 20260830092524 | 67 | 0 | 0.0 | 1.0 | 0.00 | 0.00 | 0.00 | 88 | 1022.4 |
| 20260830092256 | 68 | 185 | 0.0 | 0.0 | 0.00 | 0.00 | 0.00 | 88 | 1024.4 |
| 20260830092024 | 67 | 0 | 0.0 | 1.0 | 0.00 | 0.00 | 0.00 | 88 | 1022.4 |
| 20260830091549 | 67 | 0 | 0.0 | 2.0 | 0.00 | 0.00 | 0.00 | 88 | 1022.4 |
| 20260830091307 | 68 | 185 | 0.0 | 0.0 | 0.00 | 0.00 | 0.00 | 88 | 1024.4 |
| 20260830091024 | 67 | 0 | 0.0 | 2.0 | 0.00 | 0.00 | 0.00 | 88 | 1022.5 |
| 20260830090532 | 67 | 185 | 0.0 | 2.0 | 0.00 | 0.00 | 0.00 | 88 | 1022.6 |
| 20260830090315 | 68 | 185 | 0.0 | 1.0 | 0.00 | 0.00 | 0.00 | 88 | 1024.7 |
| 20260830090045 | 67 | 0 | 0.0 | 1.0 | 0.00 | 0.00 | 0.00 | 88 | 1022.6 |
| 20260830085526 | 67 | 0 | 0.0 | 1.0 | 0.00 | 0.00 | 0.00 | 88 | 1022.6 |
| 20260830085255 | 68 | 185 | 0.0 | 0.0 | 0.00 | 0.00 | 0.00 | 88 | 1024.6 |
| 20260830085025 | 67 | 0 | 0.0 | 1.0 | 0.00 | 0.00 | 0.00 | 88 | 1022.5 |
| 20260830084552 | 67 | 0 | 0.0 | 1.0 | 0.00 | 0.00 | 0.00 | 88 | 1022.6 |
| 20260830084316 | 68 | 185 | 0.0 | 0.0 | 0.00 | 0.00 | 0.00 | 88 | 1024.7 |
| 20260830084023 | 67 | 0 | 0.0 | 1.0 | 0.00 | 0.00 | 0.00 | 88 | 1022.6 |
| 20260830083526 | 67 | 0 | 0.0 | 0.0 | 0.00 | 0.00 | 0.00 | 88 | 1022.6 |
| 20260830083053 | 67 | 0 | 0.0 | 0.0 | 0.00 | 0.00 | 0.00 | 88 | 1022.6 |
| 20260830082524 | 67 | 0 | 0.0 | 0.0 | 0.00 | 0.00 | 0.00 | 88 | 1022.6 |
| 20260830082215 | 68 | 185 | 0.0 | 0.0 | 0.00 | 0.00 | 0.00 | 88 | 1024.6 |
| 20260830082024 | 67 | 0 | 0.0 | 1.0 | 0.00 | 0.00 | 0.00 | 88 | 1022.7 |
| 20260830081547 | 67 | 0 | 0.0 | 1.0 | 0.00 | 0.00 | 0.00 | 88 | 1022.8 |
| 20260830081230 | 68 | 185 | 0.0 | 0.0 | 0.00 | 0.00 | 0.00 | 88 | 1024.8 |
| 20260830081023 | 67 | 0 | 0.0 | 1.0 | 0.00 | 0.00 | 0.00 | 88 | 1022.7 |
| 20260830080524 | 67 | 185 | 0.0 | 0.0 | 0.00 | 0.00 | 0.00 | 88 | 1022.7 |
| 20260830080231 | 68 | 185 | 0.0 | 0.0 | 0.00 | 0.00 | 0.00 | 88 | 1024.7 |
| 20260830080044 | 67 | 0 | 0.0 | 0.0 | 0.00 | 0.00 | 0.00 | 88 | 1022.7 |
| 20260830075525 | 67 | 0 | 0.0 | 0.0 | 0.00 | 0.00 | 0.00 | 88 | 1022.6 |
| 20260830075027 | 67 | 0 | 0.0 | 0.0 | 0.00 | 0.00 | 0.00 | 88 | 1022.6 |
| 20260830074557 | 67 | 0 | 0.0 | 1.0 | 0.00 | 0.00 | 0.00 | 88 | 1022.7 |
| 20260830074045 | 68 | 185 | 0.0 | 0.0 | 0.00 | 0.00 | 0.00 | 88 | 1024.8 |
| 20260830074028 | 67 | 0 | 0.0 | 1.0 | 0.00 | 0.00 | 0.00 | 88 | 1022.8 |
| 20260830073525 | 67 | 0 | 0.0 | 1.0 | 0.00 | 0.00 | 0.00 | 88 | 1022.8 |
| 20260830073050 | 67 | 0 | 0.0 | 1.0 | 0.00 | 0.00 | 0.00 | 88 | 1022.9 |
| 20260830073026 | 68 | 185 | 0.0 | 0.0 | 0.00 | 0.00 | 0.00 | 88 | 1024.9 |
| 20260830072526 | 67 | 0 | 0.0 | 1.0 | 0.00 | 0.00 | 0.00 | 88 | 1022.8 |
| 20260830072026 | 67 | 0 | 0.0 | 1.0 | 0.00 | 0.00 | 0.00 | 88 | 1022.9 |
| 20260830072016 | 68 | 185 | 0.0 | 0.0 | 0.00 | 0.00 | 0.00 | 88 | 1024.8 |
| 20260830071546 | 67 | 0 | 0.0 | 1.0 | 0.00 | 0.00 | 0.00 | 88 | 1022.9 |
| 20260830071030 | 67 | 0 | 0.0 | 2.0 | 0.00 | 0.00 | 0.00 | 88 | 1022.9 |
| 20260830071023 | 67 | 185 | 0.0 | 0.0 | 0.00 | 0.00 | 0.00 | 88 | 1024.9 |
| 20260830070526 | 67 | 0 | 0.0 | 2.0 | 0.00 | 0.00 | 0.00 | 88 | 1022.9 |
| 20260830070054 | 67 | 185 | 0.0 | 1.0 | 0.00 | 0.00 | 0.00 | 88 | 1023.0 |
| 20260830065952 | 68 | 185 | 0.0 | 0.0 | 0.00 | 0.00 | 0.00 | 88 | 1025.1 |
| 20260830065524 | 67 | 0 | 0.0 | 1.0 | 0.00 | 0.00 | 0.00 | 88 | 1023.1 |
| 20260830065024 | 68 | 0 | 0.0 | 1.0 | 0.00 | 0.00 | 0.00 | 88 | 1023.1 |
| 20260830065010 | 68 | 185 | 0.0 | 0.0 | 0.00 | 0.00 | 0.00 | 88 | 1025.1 |
| 20260830064606 | 68 | 0 | 0.0 | 1.0 | 0.00 | 0.00 | 0.00 | 88 | 1023.1 |
| 20260830064025 | 68 | 0 | 0.0 | 0.0 | 0.00 | 0.00 | 0.00 | 88 | 1023.1 |
| 20260830064011 | 68 | 185 | 0.0 | 0.0 | 0.00 | 0.00 | 0.00 | 88 | 1025.2 |
| 20260830063525 | 68 | 0 | 0.0 | 0.0 | 0.00 | 0.00 | 0.00 | 88 | 1023.1 |
| 20260830063047 | 68 | 0 | 0.0 | 1.0 | 0.00 | 0.00 | 0.00 | 88 | 1023.0 |
| 20260830063031 | 68 | 185 | 0.0 | 0.0 | 0.00 | 0.00 | 0.00 | 88 | 1025.0 |
| 20260830062523 | 68 | 0 | 0.0 | 1.0 | 0.00 | 0.00 | 0.00 | 88 | 1022.9 |
| 20260830062051 | 68 | 185 | 0.0 | 0.0 | 0.00 | 0.00 | 0.00 | 88 | 1024.9 |
| 20260830062022 | 68 | 0 | 0.0 | 1.0 | 0.00 | 0.00 | 0.00 | 88 | 1022.9 |
| 20260830061542 | 68 | 0 | 0.0 | 1.0 | 0.00 | 0.00 | 0.00 | 88 | 1022.9 |
| 20260830061025 | 68 | 0 | 0.0 | 1.0 | 0.00 | 0.00 | 0.00 | 88 | 1022.9 |
| 20260830061019 | 69 | 185 | 0.0 | 0.0 | 0.00 | 0.00 | 0.00 | 88 | 1025.0 |
| 20260830060525 | 68 | 0 | 0.0 | 1.0 | 0.00 | 0.00 | 0.00 | 88 | 1023.1 |
| 20260830060059 | 68 | 0 | 0.0 | 1.0 | 0.00 | 0.00 | 0.00 | 88 | 1023.1 |
| 20260830055955 | 69 | 185 | 0.0 | 0.0 | 0.00 | 0.00 | 0.00 | 88 | 1025.1 |
| 20260830055528 | 68 | 0 | 0.0 | 0.0 | 0.00 | 0.00 | 0.00 | 88 | 1023.1 |
| 20260830055025 | 69 | 0 | 0.0 | 0.0 | 0.00 | 0.00 | 0.00 | 88 | 1023.1 |
| 20260830054927 | 69 | 185 | 0.0 | 0.0 | 0.00 | 0.00 | 0.00 | 88 | 1025.1 |
| 20260830054548 | 69 | 0 | 0.0 | 0.0 | 0.00 | 0.00 | 0.00 | 88 | 1023.0 |
| 20260830054024 | 69 | 0 | 0.0 | 0.0 | 0.00 | 0.00 | 0.00 | 88 | 1023.0 |
| 20260830053943 | 69 | 185 | 0.0 | 0.0 | 0.00 | 0.00 | 0.00 | 88 | 1024.9 |
| 20260830053524 | 69 | 0 | 0.0 | 1.0 | 0.00 | 0.00 | 0.00 | 88 | 1023.0 |
| 20260830053043 | 69 | 0 | 0.0 | 1.0 | 0.00 | 0.00 | 0.00 | 88 | 1023.1 |
| 20260830052523 | 69 | 0 | 0.0 | 1.0 | 0.00 | 0.00 | 0.00 | 88 | 1023.4 |
| 20260830052025 | 69 | 0 | 0.0 | 1.0 | 0.00 | 0.00 | 0.00 | 87 | 1023.4 |
| 20260830051841 | 70 | 185 | 0.0 | 0.0 | 0.00 | 0.00 | 0.00 | 87 | 1025.4 |
| 20260830051554 | 70 | 0 | 0.0 | 1.0 | 0.00 | 0.00 | 0.00 | 87 | 1023.4 |